Погода в Печенге

Россия / Мурманская область     69°33′15″N   31°13′07″E
темп.,
°C
ветер,
м/с
пор.,
м/с
влажн.,
%
обл.,
%
осадки,
мм/ч
давл.,
гПа
погр.,
м
27 января, ср
ср2700:00−13вюв6129290 0.3 1013300
03:00−16в339583 0.3 101331
06:00−15в239785 0.0 101335
09:00−14в239684 0.2 101343
12:00−13всв129794 0.2 101323
15:00−9в6119597 0.6 1013316
18:00−8всв91589100 0.3 1012491
21:00−9всв71386100 0.3 1012273
28 января, чт
чт2800:00−9всв71387100 0.0 1012310
03:00−9всв61287100 0.1 1013252
06:00−9в61190100 0.1 1013248
09:00−10в3595100 0.1 101392
12:00−12вюв3593100 0.1 1014103
15:00−12вюв4689100 0.1 1015117
18:00−13вюв61288100 0.0 1015256
21:00−14вюв81587100 0.0 1015319
29 января, пт
пт2900:00−15вюв91482100 0.0 1015326
03:00−17вюв81391100 0.1 1014305
06:00−17вюв71195100 0.4 1013341
09:00−17вюв3896100 0.7 1012284
12:00−17юв1297100 0.3 101289
15:00−17юв2296100 0.4 101256
18:00−18юв2294100 0.0 101123
21:00−19юв1195100 0.0 101020
30 января, сб
сб3000:00−18вюв1192100 0.0 100920
03:00−18в1196100 0.0 100720
06:00−15всв1296100 0.2 100557
09:00−13всв2396100 0.7 1003119
12:00−12в3995100 0.4 1002298
15:00−12в2495100 0.8 1000117
18:00−13в2395100 0.3 99995
21:00−13в2296100 0.8 99855
31 января, вс
вс3100:00−13в1596100 0.6 997224
03:00−13в1196100 1.2 99671
06:00−14вюв1196100 0.4 99529
09:00−15юв1295100 0.7 99524
12:00−16ююв2294100 0.1 99527
15:00−19ююв229781 0.1 99620
18:00−19ююв229635 0.0 99720
21:00−18юв119436 0.0 99720